Home   Weather   Taichung   Past weeks

Flag for Taiwan Past Weather in Taichung, Taiwan — Yesterday and Last 2 Weeks

Now
55 °F

Light rain. Overcast.


Feels Like: 50 °F
Forecast: 60 / 69 °F
Wind: 23 mph from Northeast

Location: Chiang Kai Shek

Current Time: Feb 25, 2017 at 7:29:22 pm

Latest Report: Feb 25, 2017 at 6:30 pm


Visibility: 3 mi

Pressure: 30.12 "Hg

Humidity: 94%

Dew Point: 54 °F

Location of TaichungLocation

Past Weather in Taichung — Graph

°F

Taichung Temperature Yesterday

Maximum temperature yesterday: 55 °F (at 6:30 am)
Minimum temperature yesterday: 50 °F (at 3:00 pm)
Average temperature yesterday: 53 °F

High & Low Weather Summary for the Past Weeks

 TemperatureHumidityPressure
High81 °F (Feb 19, 11:30 am)100% (Feb 16, 2:00 am)30.42 "Hg (Feb 16, 2:00 am)
Low50 °F (Feb 24, 3:00 pm)43% (Feb 14, 10:03 am)29.92 "Hg (Feb 22, 4:30 pm)
Average62 °F77%30.17 "Hg
* Reported Feb 10 6:00 pm — Feb 25 6:00 pm, Taichung, Weather by CustomWeather, © 2017

Note: Actual official high and low records may vary slightly from our data, if they occured in-between our weather recording intervals... More about our weather records

Advertising

Taichung Weather History for the Previous 24 Hours

Scroll right to see more
 ConditionsComfort  
Time TempWeatherWind HumidityBarometerVisibility
6:00 pm
Sat, Feb 25
55 °FLight rain. Overcast.21 mph94%30.09 "Hg3 mi
5:30 pm55 °FLight rain. Cloudy.22 mph94%30.09 "Hg4 mi
5:00 pm55 °FLight rain. Cloudy.20 mph94%30.09 "Hg2 mi
4:30 pm55 °FLight rain. Cloudy.20 mph94%30.09 "Hg3 mi
4:00 pm55 °FLight rain. Cloudy.22 mph94%30.09 "Hg3 mi
3:32 pm55 °FLight rain. Cloudy.22 mph94%30.09 "Hg3 mi
3:00 pm55 °FLight rain. Cloudy.22 mph94%30.09 "Hg3 mi
2:30 pm55 °FLight rain. Cloudy.22 mph94%30.09 "Hg2 mi
2:00 pm55 °FLight rain. Cloudy.21 mph94%30.09 "Hg2 mi
1:30 pm55 °FLight rain. Cloudy.23 mph94%30.09 "Hg3 mi
1:18 pm55 °FLight rain. Cloudy.23 mph94%30.12 "Hg3 mi
1:00 pm55 °FLight rain. Cloudy.22 mph94%30.12 "Hg5 mi
12:30 pm55 °FLight rain. Cloudy.23 mph94%30.15 "Hg5 mi
12:09 pm55 °FLight rain. Cloudy.22 mph94%30.15 "Hg3 mi
12:02 pm55 °FLight rain. Cloudy.22 mph94%30.15 "Hg3 mi
11:32 am55 °FLight rain. Cloudy.22 mph94%30.15 "Hg3 mi
11:17 am55 °FLight rain. Cloudy.21 mph94%30.15 "Hg3 mi
11:00 am57 °FLight rain. Cloudy.22 mph94%30.15 "Hg5 mi
10:30 am57 °FLight rain. Cloudy.22 mph94%30.15 "Hg4 mi
10:00 am57 °FLight rain. Cloudy.20 mph100%30.15 "Hg5 mi
9:30 am57 °FLight rain. Cloudy.18 mph100%30.18 "Hg4 mi
9:00 am57 °FLight rain. Cloudy.17 mph94%30.15 "Hg4 mi
8:30 am57 °FLight rain. Cloudy.17 mph94%30.18 "Hg2 mi
8:00 am55 °FLight rain. Cloudy.22 mph100%30.15 "Hg4 mi
7:37 am55 °FRain. Cloudy.24 mph94%30.15 "Hg2 mi
7:00 am57 °FLight rain. Cloudy.21 mph94%30.15 "Hg6 mi
6:30 am57 °FLight rain. Cloudy.21 mph94%30.15 "HgN/A
6:11 am57 °FLight rain. Overcast.18 mph94%30.15 "Hg4 mi
6:00 am55 °FRain. Overcast.20 mph100%30.15 "Hg3 mi
5:54 am55 °FRain. Overcast.20 mph100%30.15 "Hg3 mi
5:30 am55 °FLight rain. Overcast.21 mph94%30.15 "Hg3 mi
5:00 am55 °FLight rain. Fog.22 mph94%30.15 "Hg2 mi
4:50 am55 °FLight rain. Fog.23 mph94%30.15 "Hg2 mi
4:30 am55 °FLight rain. Overcast.22 mph94%30.15 "Hg2 mi
4:10 am55 °FLight rain. Overcast.21 mph94%30.15 "Hg3 mi
4:00 am57 °FLight rain. Overcast.17 mph94%30.15 "Hg6 mi
3:30 am57 °FLight rain. Overcast.16 mph94%30.15 "HgN/A
3:00 am57 °FOvercast.20 mph94%30.15 "HgN/A
2:30 am55 °FLight rain. Overcast.20 mph100%30.15 "Hg5 mi
2:10 am55 °FLight rain. Overcast.18 mph94%30.15 "Hg4 mi
2:00 am55 °FLight rain. Overcast.21 mph94%30.15 "Hg4 mi
1:46 am55 °FRain. Overcast.21 mph94%30.18 "Hg4 mi
1:34 am55 °FLight rain. Overcast.22 mph94%30.18 "HgN/A
1:00 am55 °FLight rain. Overcast.17 mph94%30.18 "HgN/A
12:30 am55 °FLight rain. Overcast.17 mph94%30.21 "Hg3 mi
12:00 am55 °FLight rain. Overcast.20 mph94%30.21 "Hg4 mi
11:30 pm
Fri, Feb 24
55 °FLight rain. Overcast.20 mph94%30.21 "Hg4 mi
11:00 pm55 °FLight rain. Overcast.21 mph94%30.21 "Hg4 mi
10:30 pm55 °FLight rain. Overcast.20 mph94%30.24 "HgN/A
10:00 pm55 °FLight rain. Overcast.22 mph88%30.21 "Hg5 mi
9:30 pm54 °FLight rain. Overcast.21 mph94%30.24 "Hg5 mi
9:18 pm55 °FLight rain. Overcast.21 mph88%30.24 "Hg5 mi
9:00 pm54 °FLight rain. Overcast.20 mph94%30.24 "HgN/A
8:36 pm54 °FLight rain. Overcast.20 mph94%30.21 "HgN/A
8:00 pm54 °FLight rain. Overcast.21 mph94%30.21 "Hg4 mi
7:30 pm54 °FLight rain. Overcast.20 mph88%30.21 "Hg4 mi
7:00 pm54 °FLight rain. Overcast.20 mph88%30.21 "Hg5 mi
Weather by CustomWeather, © 2017

See weather overviewHow to use our weather pages